Regional Weather Roundup
Issued by NWS

Home | Current Version | Previous Version | Text Only | Print | Product List | Glossary Off
Versions: 1 2 3 4 5 6 7 8 9 10 11 12 13 14 15 16 17 18 19 20 21 22 23 24 25 26 27 28 29 30 31 32 33 34 35 36 37 38 39 40 41 42 43 44 45 46 47 48 49 50

000
ASUS43 KLMK 190810
RWRKY
KENTUCKY REGIONAL WEATHER ROUNDUP
NATIONAL WEATHER SERVICE LOUISVILLE KY
300 AM EST FRI DEC 19 2014

NOTE "FAIR" INDICATES FEW OR NO CLOUDS BELOW 12,000 FEET
WITH NO SIGNIFICANT WEATHER AND/OR OBSTRUCTIONS TO VISIBILITY.

KYZ001>023-026-027-061>063-070>075-190900-
WESTERN AND SOUTH CENTRAL KENTUCKY

CITY           SKY/WX    TMP DP  RH WIND       PRES   REMARKS
PADUCAH        CLOUDY    34  30  85 NE6       30.26F WCI  29
HENDERSON      CLOUDY    32  25  74 N5        30.28R WCI  27
OWENSBORO      CLOUDY    32  27  82 MISG      30.28R
HOPKINSVILLE   CLOUDY    33  29  83 N5        30.25S WCI  29
BOWLING GREEN  CLOUDY    34  26  72 NW3       30.25S
GLASGOW        CLOUDY    32  29  88 CALM      30.23S
$$

KYZ024-025-028>034-038-045-046-053-190900-
NORTH CENTRAL KENTUCKY

CITY           SKY/WX    TMP DP  RH WIND       PRES   REMARKS
LOUISVILLE/SDF CLOUDY    32  24  72 N5        30.26R WCI  27
LOUISVILLE/LOU CLOUDY    31  23  72 N3        30.26S
FORT KNOX      CLOUDY    31  26  81 N3        30.23S
$$

KYZ035>037-039>044-047>052-055>060-089>105-190900-
NORTHEAST KENTUCKY

CITY           SKY/WX    TMP DP  RH WIND       PRES   REMARKS
LEXINGTON      CLOUDY    29  23  78 N3        30.23R
COVINGTON      CLEAR     26  19  74 NW3       30.23R
FRANKFORT      CLOUDY    29  23  78 CALM      30.23R
$$

KYZ054-064>069-076>088-106>120-190900-
SOUTHEAST KENTUCKY

CITY           SKY/WX    TMP DP  RH WIND       PRES   REMARKS
JACKSON        CLOUDY    30  24  78 CALM      30.20R
LONDON         CLOUDY    33  25  72 CALM      30.20S
SOMERSET       CLOUDY    32  27  80 CALM      30.23S
MIDDLESBORO    CLOUDY    34  28  80 CALM      30.20S
MONTICELLO     CLOUDY    33  28  82 CALM      30.25S
$$



USA.gov is the U.S. government's official web portal to all federal, state and local government web resources and services.